| time (UTC) | temp C | wind direction | speed KPH | gust KPH | rain 1hr cm | rain 24hr cm | rain mn cm | humidity % | barometer mb |
| 20260509151204 | 20 | 220 | 22.5 | 32.2 | 0.00 | 0.00 | 0.00 | 63 | 1009.9 |
| 20260509150705 | 20 | 226 | 19.3 | 32.2 | 0.00 | 0.00 | 0.00 | 62 | 1010.0 |
| 20260509150205 | 20 | 208 | 25.7 | 32.2 | 0.00 | 0.00 | 0.00 | 63 | 1010.2 |
| 20260509145205 | 20 | 219 | 22.5 | 32.2 | 0.00 | 0.00 | 0.00 | 64 | 1010.4 |
| 20260509144705 | 19 | 191 | 20.9 | 29.0 | 0.00 | 0.00 | 0.00 | 65 | 1010.4 |
| 20260509144205 | 19 | 212 | 20.9 | 32.2 | 0.00 | 0.00 | 0.00 | 65 | 1010.3 |
| 20260509143205 | 19 | 230 | 19.3 | 29.0 | 0.00 | 0.00 | 0.00 | 66 | 1010.3 |
| 20260509142705 | 18 | 193 | 16.1 | 25.7 | 0.00 | 0.00 | 0.00 | 68 | 1010.4 |
| 20260509141205 | 18 | 211 | 19.3 | 27.4 | 0.00 | 0.00 | 0.00 | 68 | 1010.6 |
| 20260509140705 | 18 | 200 | 20.9 | 29.0 | 0.00 | 0.00 | 0.00 | 69 | 1010.5 |
| 20260509140205 | 18 | 194 | 17.7 | 25.7 | 0.00 | 0.00 | 0.00 | 69 | 1010.5 |
| 20260509135705 | 18 | 188 | 19.3 | 32.2 | 0.00 | 0.00 | 0.00 | 69 | 1010.5 |
| 20260509135205 | 18 | 195 | 17.7 | 25.7 | 0.00 | 0.00 | 0.00 | 69 | 1010.6 |
| 20260509134205 | 18 | 209 | 16.1 | 29.0 | 0.00 | 0.00 | 0.00 | 69 | 1010.6 |
| 20260509133705 | 18 | 192 | 16.1 | 27.4 | 0.00 | 0.00 | 0.00 | 70 | 1010.5 |
| 20260509133205 | 18 | 198 | 19.3 | 32.2 | 0.00 | 0.00 | 0.00 | 69 | 1010.6 |
| 20260509132705 | 18 | 183 | 16.1 | 27.4 | 0.00 | 0.00 | 0.00 | 70 | 1010.6 |
| 20260509132205 | 18 | 204 | 20.9 | 32.2 | 0.00 | 0.00 | 0.00 | 70 | 1010.8 |
| 20260509131705 | 18 | 255 | 20.9 | 32.2 | 0.00 | 0.00 | 0.00 | 71 | 1010.7 |
| 20260509131205 | 18 | 213 | 16.1 | 32.2 | 0.00 | 0.00 | 0.00 | 70 | 1010.6 |
| 20260509130705 | 18 | 212 | 22.5 | 32.2 | 0.00 | 0.00 | 0.00 | 70 | 1010.7 |
| 20260509130205 | 18 | 179 | 20.9 | 32.2 | 0.00 | 0.00 | 0.00 | 71 | 1010.7 |
| 20260509125204 | 18 | 216 | 20.9 | 27.4 | 0.00 | 0.00 | 0.00 | 71 | 1010.7 |
| 20260509124705 | 18 | 201 | 20.9 | 40.2 | 0.00 | 0.00 | 0.00 | 70 | 1010.7 |
| 20260509124205 | 17 | 172 | 22.5 | 35.4 | 0.00 | 0.00 | 0.00 | 71 | 1010.7 |
| 20260509123705 | 17 | 215 | 19.3 | 27.4 | 0.00 | 0.00 | 0.00 | 71 | 1010.7 |
| 20260509123205 | 17 | 199 | 20.9 | 29.0 | 0.00 | 0.00 | 0.00 | 72 | 1010.7 |
| 20260509122705 | 17 | 209 | 20.9 | 32.2 | 0.00 | 0.00 | 0.00 | 74 | 1010.7 |
| 20260509121205 | 16 | 203 | 24.1 | 33.8 | 0.00 | 0.00 | 0.00 | 75 | 1010.8 |
| 20260509120705 | 16 | 208 | 20.9 | 32.2 | 0.00 | 0.00 | 0.00 | 75 | 1010.8 |
| 20260509120205 | 16 | 214 | 22.5 | 32.2 | 0.00 | 0.00 | 0.00 | 76 | 1010.8 |
| 20260509115705 | 16 | 207 | 20.9 | 32.2 | 0.00 | 0.00 | 0.00 | 76 | 1010.7 |
| 20260509115205 | 16 | 42 | 16.1 | 32.2 | 0.00 | 0.00 | 0.00 | 75 | 1010.7 |
| 20260509114705 | 16 | 208 | 19.3 | 32.2 | 0.00 | 0.00 | 0.00 | 76 | 1010.8 |
| 20260509113705 | 16 | 205 | 20.9 | 29.0 | 0.00 | 0.00 | 0.00 | 77 | 1010.7 |
| 20260509113204 | 16 | 214 | 20.9 | 27.4 | 0.00 | 0.00 | 0.00 | 77 | 1010.7 |
| 20260509112704 | 15 | 190 | 19.3 | 35.4 | 0.00 | 0.00 | 0.00 | 78 | 1010.7 |
| 20260509111705 | 15 | 194 | 20.9 | 35.4 | 0.00 | 0.00 | 0.00 | 78 | 1010.7 |
| 20260509111205 | 15 | 213 | 20.9 | 35.4 | 0.00 | 0.00 | 0.00 | 78 | 1010.8 |
| 20260509110705 | 15 | 156 | 22.5 | 32.2 | 0.00 | 0.00 | 0.00 | 79 | 1010.8 |
| 20260509110205 | 15 | 294 | 24.1 | 35.4 | 0.00 | 0.00 | 0.00 | 79 | 1010.7 |
| 20260509105705 | 15 | 176 | 19.3 | 35.4 | 0.00 | 0.00 | 0.00 | 79 | 1010.8 |
| 20260509105205 | 15 | 189 | 19.3 | 32.2 | 0.00 | 0.00 | 0.00 | 79 | 1010.8 |
| 20260509104705 | 15 | 206 | 20.9 | 32.2 | 0.00 | 0.00 | 0.00 | 79 | 1010.8 |
| 20260509104205 | 15 | 208 | 20.9 | 32.2 | 0.00 | 0.00 | 0.00 | 80 | 1010.7 |
| 20260509103705 | 15 | 166 | 20.9 | 38.6 | 0.00 | 0.00 | 0.00 | 79 | 1010.6 |
| 20260509103206 | 15 | 193 | 19.3 | 32.2 | 0.00 | 0.00 | 0.00 | 79 | 1010.5 |
| 20260509102704 | 15 | 108 | 20.9 | 32.2 | 0.00 | 0.00 | 0.00 | 79 | 1010.6 |
| 20260509102205 | 15 | 178 | 19.3 | 32.2 | 0.00 | 0.00 | 0.00 | 79 | 1010.7 |
| 20260509101704 | 15 | 176 | 20.9 | 35.4 | 0.00 | 0.00 | 0.00 | 78 | 1010.7 |
| 20260509101205 | 15 | 173 | 14.5 | 32.2 | 0.00 | 0.00 | 0.00 | 78 | 1010.5 |
| 20260509100704 | 15 | 175 | 19.3 | 32.2 | 0.00 | 0.00 | 0.00 | 78 | 1010.5 |
| 20260509095705 | 15 | 196 | 17.7 | 32.2 | 0.00 | 0.00 | 0.00 | 78 | 1010.5 |
| 20260509095205 | 15 | 181 | 14.5 | 29.0 | 0.00 | 0.00 | 0.00 | 78 | 1010.5 |
| 20260509094705 | 15 | 212 | 16.1 | 25.7 | 0.00 | 0.00 | 0.00 | 77 | 1010.5 |
| 20260509094204 | 15 | 274 | 16.1 | 25.7 | 0.00 | 0.00 | 0.00 | 77 | 1010.4 |
| 20260509093705 | 15 | 177 | 17.7 | 24.1 | 0.00 | 0.00 | 0.00 | 77 | 1010.3 |
| 20260509092705 | 15 | 168 | 14.5 | 27.4 | 0.00 | 0.00 | 0.00 | 77 | 1010.5 |
| 20260509092205 | 15 | 173 | 14.5 | 24.1 | 0.00 | 0.00 | 0.00 | 77 | 1010.5 |
| 20260509091705 | 15 | 194 | 14.5 | 22.5 | 0.00 | 0.00 | 0.00 | 76 | 1010.5 |
| 20260509091205 | 15 | 192 | 16.1 | 32.2 | 0.00 | 0.00 | 0.00 | 77 | 1010.5 |
| 20260509090705 | 15 | 228 | 17.7 | 25.7 | 0.00 | 0.00 | 0.00 | 77 | 1010.4 |
| 20260509090205 | 15 | 281 | 19.3 | 27.4 | 0.00 | 0.00 | 0.00 | 77 | 1010.4 |
| 20260509085705 | 15 | 15 | 19.3 | 27.4 | 0.00 | 0.00 | 0.00 | 76 | 1010.4 |
| 20260509085205 | 15 | 336 | 16.1 | 27.4 | 0.00 | 0.00 | 0.00 | 77 | 1010.4 |
| 20260509084705 | 15 | 176 | 16.1 | 27.4 | 0.00 | 0.00 | 0.00 | 77 | 1010.5 |
| 20260509084205 | 15 | 191 | 16.1 | 27.4 | 0.00 | 0.00 | 0.00 | 76 | 1010.5 |
| 20260509083705 | 15 | 214 | 16.1 | 20.9 | 0.00 | 0.00 | 0.00 | 76 | 1010.6 |
| 20260509083205 | 15 | 177 | 14.5 | 22.5 | 0.00 | 0.00 | 0.00 | 76 | 1010.5 |
| 20260509082704 | 16 | 214 | 14.5 | 24.1 | 0.00 | 0.00 | 0.00 | 76 | 1010.6 |
| 20260509081204 | 16 | 190 | 17.7 | 27.4 | 0.00 | 0.00 | 0.00 | 76 | 1010.6 |
| 20260509080704 | 16 | 199 | 19.3 | 27.4 | 0.00 | 0.00 | 0.00 | 76 | 1010.7 |
| 20260509080205 | 16 | 201 | 16.1 | 29.0 | 0.00 | 0.00 | 0.00 | 75 | 1010.8 |
| 20260509075705 | 16 | 186 | 14.5 | 32.2 | 0.00 | 0.00 | 0.00 | 75 | 1010.8 |
| 20260509075204 | 16 | 178 | 19.3 | 32.2 | 0.00 | 0.00 | 0.00 | 76 | 1010.8 |
| 20260509074705 | 16 | 180 | 12.9 | 22.5 | 0.00 | 0.00 | 0.00 | 76 | 1010.7 |
| 20260509074204 | 16 | 192 | 16.1 | 22.5 | 0.00 | 0.00 | 0.00 | 75 | 1010.6 |
| 20260509073704 | 15 | 192 | 14.5 | 32.2 | 0.00 | 0.00 | 0.00 | 75 | 1010.8 |
| 20260509072704 | 15 | 15 | 16.1 | 25.7 | 0.00 | 0.00 | 0.00 | 75 | 1010.8 |
| 20260509072204 | 15 | 174 | 19.3 | 25.7 | 0.00 | 0.00 | 0.00 | 76 | 1010.9 |
| 20260509071705 | 15 | 157 | 19.3 | 29.0 | 0.00 | 0.00 | 0.00 | 76 | 1011.0 |
| 20260509071205 | 15 | 172 | 16.1 | 24.1 | 0.00 | 0.00 | 0.00 | 76 | 1011.0 |
| 20260509070205 | 15 | 215 | 14.5 | 25.7 | 0.00 | 0.00 | 0.00 | 76 | 1011.0 |
| 20260509065705 | 15 | 204 | 16.1 | 29.0 | 0.00 | 0.00 | 0.00 | 76 | 1011.0 |
| 20260509065205 | 15 | 191 | 17.7 | 25.7 | 0.00 | 0.00 | 0.00 | 76 | 1011.1 |
| 20260509064205 | 15 | 199 | 19.3 | 29.0 | 0.00 | 0.00 | 0.00 | 76 | 1011.1 |
| 20260509063705 | 15 | 180 | 24.1 | 33.8 | 0.00 | 0.00 | 0.00 | 75 | 1011.1 |
| 20260509063205 | 15 | 183 | 19.3 | 29.0 | 0.00 | 0.00 | 0.00 | 75 | 1011.2 |
| 20260509062705 | 15 | 182 | 19.3 | 32.2 | 0.00 | 0.00 | 0.00 | 75 | 1011.2 |
| 20260509062205 | 15 | 270 | 19.3 | 32.2 | 0.00 | 0.00 | 0.00 | 75 | 1011.3 |
| 20260509061705 | 15 | 238 | 22.5 | 32.2 | 0.00 | 0.00 | 0.00 | 76 | 1011.3 |
| 20260509061204 | 15 | 205 | 17.7 | 27.4 | 0.00 | 0.00 | 0.00 | 76 | 1011.2 |
| 20260509060704 | 15 | 204 | 17.7 | 29.0 | 0.00 | 0.00 | 0.00 | 76 | 1011.2 |
| 20260509060204 | 15 | 204 | 16.1 | 25.7 | 0.00 | 0.00 | 0.00 | 76 | 1011.3 |
| 20260509055704 | 15 | 198 | 19.3 | 32.2 | 0.00 | 0.00 | 0.00 | 75 | 1011.4 |
| 20260509055204 | 15 | 198 | 17.7 | 27.4 | 0.00 | 0.00 | 0.00 | 75 | 1011.3 |
| 20260509054704 | 15 | 223 | 19.3 | 29.0 | 0.00 | 0.00 | 0.00 | 75 | 1011.3 |
| 20260509053705 | 15 | 294 | 19.3 | 27.4 | 0.00 | 0.00 | 0.00 | 76 | 1011.4 |
| 20260509053204 | 15 | 172 | 17.7 | 32.2 | 0.00 | 0.00 | 0.00 | 76 | 1011.5 |
| 20260509052705 | 15 | 188 | 19.3 | 29.0 | 0.00 | 0.00 | 0.00 | 76 | 1011.4 |
| 20260509052205 | 15 | 215 | 16.1 | 25.7 | 0.00 | 0.00 | 0.00 | 77 | 1011.4 |
| 20260509051705 | 15 | 192 | 17.7 | 35.4 | 0.00 | 0.00 | 0.00 | 76 | 1011.4 |
| 20260509050705 | 15 | 196 | 14.5 | 29.0 | 0.00 | 0.00 | 0.00 | 76 | 1011.4 |
| 20260509050205 | 15 | 194 | 17.7 | 33.8 | 0.00 | 0.00 | 0.00 | 76 | 1011.5 |
| 20260509045705 | 15 | 227 | 19.3 | 29.0 | 0.00 | 0.00 | 0.00 | 75 | 1011.4 |
| 20260509045205 | 15 | 220 | 16.1 | 29.0 | 0.00 | 0.00 | 0.00 | 75 | 1011.5 |
| 20260509044705 | 15 | 185 | 16.1 | 29.0 | 0.00 | 0.00 | 0.00 | 75 | 1011.4 |
| 20260509044205 | 15 | 191 | 17.7 | 35.4 | 0.00 | 0.00 | 0.00 | 74 | 1011.5 |
| 20260509042704 | 15 | 246 | 17.7 | 32.2 | 0.00 | 0.00 | 0.00 | 73 | 1011.5 |
| 20260509042205 | 15 | 212 | 20.9 | 32.2 | 0.00 | 0.00 | 0.00 | 73 | 1011.5 |
| 20260509041704 | 15 | 199 | 17.7 | 32.2 | 0.00 | 0.00 | 0.00 | 74 | 1011.5 |
| 20260509041204 | 15 | 188 | 17.7 | 22.5 | 0.00 | 0.00 | 0.00 | 74 | 1011.6 |
| 20260509040704 | 15 | 181 | 19.3 | 27.4 | 0.00 | 0.00 | 0.00 | 75 | 1011.7 |
| 20260509035705 | 15 | 190 | 16.1 | 32.2 | 0.00 | 0.00 | 0.00 | 75 | 1011.8 |
| 20260509035205 | 15 | 177 | 16.1 | 27.4 | 0.00 | 0.00 | 0.00 | 74 | 1011.9 |
| 20260509034204 | 15 | 202 | 14.5 | 27.4 | 0.00 | 0.00 | 0.00 | 74 | 1011.8 |
| 20260509033705 | 15 | 191 | 16.1 | 24.1 | 0.00 | 0.00 | 0.00 | 74 | 1011.7 |
| 20260509033205 | 15 | 210 | 16.1 | 27.4 | 0.00 | 0.00 | 0.00 | 74 | 1011.7 |
| 20260509032205 | 15 | 178 | 17.7 | 27.4 | 0.00 | 0.00 | 0.00 | 73 | 1011.8 |
| 20260509031705 | 15 | 194 | 19.3 | 27.4 | 0.00 | 0.00 | 0.00 | 73 | 1012.0 |
| 20260509031204 | 15 | 184 | 14.5 | 25.7 | 0.00 | 0.00 | 0.00 | 72 | 1012.0 |
| 20260509030705 | 15 | 190 | 14.5 | 25.7 | 0.00 | 0.00 | 0.00 | 71 | 1012.0 |
| 20260509024705 | 16 | 192 | 17.7 | 27.4 | 0.00 | 0.00 | 0.00 | 69 | 1011.8 |
| 20260509023705 | 16 | 181 | 19.3 | 32.2 | 0.00 | 0.00 | 0.00 | 69 | 1011.7 |
| 20260509023205 | 16 | 190 | 19.3 | 29.0 | 0.00 | 0.00 | 0.00 | 69 | 1011.8 |
| 20260509022704 | 16 | 213 | 19.3 | 29.0 | 0.00 | 0.00 | 0.00 | 68 | 1011.7 |
| 20260509022205 | 16 | 183 | 14.5 | 32.2 | 0.00 | 0.00 | 0.00 | 68 | 1011.7 |
| 20260509021705 | 16 | 181 | 19.3 | 29.0 | 0.00 | 0.00 | 0.00 | 68 | 1011.7 |
| 20260509021204 | 16 | 196 | 16.1 | 27.4 | 0.00 | 0.00 | 0.00 | 68 | 1011.8 |
| 20260509020205 | 16 | 197 | 16.1 | 22.5 | 0.00 | 0.00 | 0.00 | 67 | 1011.8 |
| 20260509015205 | 16 | 206 | 16.1 | 25.7 | 0.00 | 0.00 | 0.00 | 66 | 1011.8 |
| 20260509014205 | 16 | 188 | 17.7 | 29.0 | 0.00 | 0.00 | 0.00 | 66 | 1011.7 |
| 20260509013705 | 16 | 195 | 16.1 | 27.4 | 0.00 | 0.00 | 0.00 | 66 | 1011.7 |
| 20260509013205 | 16 | 193 | 16.1 | 22.5 | 0.00 | 0.00 | 0.00 | 66 | 1011.7 |
| 20260509012205 | 16 | 191 | 17.7 | 27.4 | 0.00 | 0.00 | 0.00 | 65 | 1011.7 |
| 20260509011205 | 16 | 223 | 16.1 | 27.4 | 0.00 | 0.00 | 0.00 | 65 | 1011.5 |
| 20260509010704 | 16 | 196 | 16.1 | 27.4 | 0.00 | 0.00 | 0.00 | 64 | 1011.5 |
| 20260509010204 | 16 | 191 | 17.7 | 29.0 | 0.00 | 0.00 | 0.00 | 64 | 1011.4 |
| 20260509005704 | 16 | 195 | 16.1 | 27.4 | 0.00 | 0.00 | 0.00 | 63 | 1011.4 |
| 20260509005204 | 16 | 193 | 16.1 | 32.2 | 0.00 | 0.00 | 0.00 | 64 | 1011.3 |
| 20260509004704 | 16 | 174 | 16.1 | 27.4 | 0.00 | 0.00 | 0.00 | 63 | 1011.2 |
| 20260509004204 | 16 | 184 | 16.1 | 32.2 | 0.00 | 0.00 | 0.00 | 62 | 1011.2 |
| 20260509003704 | 16 | 186 | 14.5 | 29.0 | 0.00 | 0.00 | 0.00 | 62 | 1011.2 |
| 20260509003204 | 16 | 204 | 20.9 | 33.8 | 0.00 | 0.00 | 0.00 | 62 | 1011.0 |
| 20260509002204 | 16 | 195 | 14.5 | 24.1 | 0.00 | 0.00 | 0.00 | 61 | 1011.0 |
| 20260509001704 | 16 | 184 | 14.5 | 24.1 | 0.00 | 0.00 | 0.00 | 61 | 1010.9 |
| 20260509000704 | 17 | 211 | 11.3 | 24.1 | 0.00 | 0.00 | 0.00 | 59 | 1010.9 |
| 20260509000204 | 17 | 183 | 14.5 | 25.7 | 0.00 | 0.00 | 0.00 | 59 | 1010.9 |
| 20260508235704 | 17 | 192 | 14.5 | 27.4 | 0.00 | 0.00 | 0.00 | 59 | 1010.8 |
| 20260508234704 | 17 | 186 | 14.5 | 24.1 | 0.00 | 0.00 | 0.00 | 57 | 1010.8 |
| 20260508234204 | 17 | 195 | 11.3 | 22.5 | 0.00 | 0.00 | 0.00 | 58 | 1010.8 |
| 20260508233704 | 17 | 189 | 14.5 | 29.0 | 0.00 | 0.00 | 0.00 | 56 | 1010.7 |
| 20260508232705 | 17 | 199 | 19.3 | 32.2 | 0.00 | 0.00 | 0.00 | 54 | 1010.7 |
| 20260508232204 | 17 | 193 | 16.1 | 27.4 | 0.00 | 0.00 | 0.00 | 54 | 1010.7 |
| 20260508231204 | 17 | 198 | 17.7 | 27.4 | 0.00 | 0.00 | 0.00 | 53 | 1010.7 |
| 20260508230704 | 17 | 178 | 20.9 | 32.2 | 0.00 | 0.00 | 0.00 | 52 | 1010.6 |
| 20260508230205 | 17 | 196 | 16.1 | 27.4 | 0.00 | 0.00 | 0.00 | 54 | 1010.7 |
| 20260508225704 | 17 | 200 | 16.1 | 25.7 | 0.00 | 0.00 | 0.00 | 53 | 1010.6 |
| 20260508225204 | 17 | 196 | 20.9 | 29.0 | 0.00 | 0.00 | 0.00 | 51 | 1010.7 |
| 20260508224704 | 17 | 194 | 20.9 | 32.2 | 0.00 | 0.00 | 0.00 | 52 | 1010.6 |
| 20260508224205 | 17 | 188 | 19.3 | 32.2 | 0.00 | 0.00 | 0.00 | 51 | 1010.6 |
| 20260508223704 | 17 | 194 | 19.3 | 37.0 | 0.00 | 0.00 | 0.00 | 53 | 1010.5 |
| 20260508223204 | 17 | 204 | 20.9 | 37.0 | 0.00 | 0.00 | 0.00 | 52 | 1010.5 |
| 20260508222704 | 18 | 183 | 20.9 | 38.6 | 0.00 | 0.00 | 0.00 | 51 | 1010.5 |
| 20260508222204 | 18 | 194 | 22.5 | 33.8 | 0.00 | 0.00 | 0.00 | 51 | 1010.6 |
| 20260508221704 | 18 | 187 | 22.5 | 35.4 | 0.00 | 0.00 | 0.00 | 51 | 1010.6 |
| 20260508221205 | 18 | 203 | 19.3 | 32.2 | 0.00 | 0.00 | 0.00 | 51 | 1010.5 |
| 20260508220704 | 18 | 187 | 20.9 | 32.2 | 0.00 | 0.00 | 0.00 | 53 | 1010.4 |
| 20260508220204 | 18 | 199 | 22.5 | 33.8 | 0.00 | 0.00 | 0.00 | 51 | 1010.6 |
| 20260508215704 | 18 | 206 | 20.9 | 29.0 | 0.00 | 0.00 | 0.00 | 50 | 1010.4 |
| 20260508215204 | 19 | 218 | 20.9 | 32.2 | 0.00 | 0.00 | 0.00 | 51 | 1010.5 |
| 20260508214704 | 19 | 202 | 19.3 | 29.0 | 0.00 | 0.00 | 0.00 | 49 | 1010.5 |
| 20260508214204 | 20 | 205 | 20.9 | 32.2 | 0.00 | 0.00 | 0.00 | 51 | 1010.4 |
| 20260508213704 | 20 | 187 | 19.3 | 32.2 | 0.00 | 0.00 | 0.00 | 51 | 1010.4 |
| 20260508213204 | 20 | 190 | 20.9 | 33.8 | 0.00 | 0.00 | 0.00 | 49 | 1010.4 |
| 20260508212704 | 20 | 189 | 17.7 | 27.4 | 0.00 | 0.00 | 0.00 | 49 | 1010.4 |
| 20260508212204 | 20 | 186 | 20.9 | 35.4 | 0.00 | 0.00 | 0.00 | 50 | 1010.4 |
| 20260508211205 | 20 | 194 | 19.3 | 32.2 | 0.00 | 0.00 | 0.00 | 49 | 1010.5 |
| 20260508210705 | 20 | 192 | 20.9 | 33.8 | 0.00 | 0.00 | 0.00 | 45 | 1010.5 |
| 20260508210205 | 20 | 194 | 22.5 | 32.2 | 0.00 | 0.00 | 0.00 | 46 | 1010.5 |
| 20260508205704 | 20 | 199 | 20.9 | 32.2 | 0.00 | 0.00 | 0.00 | 49 | 1010.6 |
| 20260508205204 | 20 | 202 | 20.9 | 27.4 | 0.00 | 0.00 | 0.00 | 47 | 1010.7 |
| 20260508204704 | 20 | 203 | 17.7 | 27.4 | 0.00 | 0.00 | 0.00 | 48 | 1010.7 |
| 20260508203704 | 20 | 209 | 25.7 | 41.8 | 0.00 | 0.00 | 0.00 | 45 | 1010.7 |
| 20260508203204 | 20 | 194 | 22.5 | 33.8 | 0.00 | 0.00 | 0.00 | 48 | 1010.7 |
| 20260508202704 | 20 | 198 | 20.9 | 33.8 | 0.00 | 0.00 | 0.00 | 46 | 1010.8 |
| 20260508202204 | 20 | 195 | 25.7 | 37.0 | 0.00 | 0.00 | 0.00 | 48 | 1010.9 |
| 20260508201704 | 20 | 187 | 24.1 | 35.4 | 0.00 | 0.00 | 0.00 | 47 | 1011.0 |
| 20260508201205 | 20 | 203 | 22.5 | 38.6 | 0.00 | 0.00 | 0.00 | 48 | 1011.0 |
| 20260508200704 | 20 | 187 | 19.3 | 32.2 | 0.00 | 0.00 | 0.00 | 50 | 1011.2 |
| 20260508200204 | 20 | 194 | 20.9 | 37.0 | 0.00 | 0.00 | 0.00 | 49 | 1011.3 |
| 20260508195704 | 20 | 191 | 20.9 | 32.2 | 0.00 | 0.00 | 0.00 | 49 | 1011.3 |
| 20260508195204 | 20 | 198 | 19.3 | 33.8 | 0.00 | 0.00 | 0.00 | 49 | 1011.4 |
| 20260508194705 | 20 | 206 | 19.3 | 32.2 | 0.00 | 0.00 | 0.00 | 48 | 1011.4 |
| 20260508194204 | 20 | 203 | 19.3 | 24.1 | 0.00 | 0.00 | 0.00 | 49 | 1011.5 |
| 20260508193704 | 20 | 195 | 20.9 | 35.4 | 0.00 | 0.00 | 0.00 | 46 | 1011.4 |
| 20260508193204 | 20 | 190 | 22.5 | 32.2 | 0.00 | 0.00 | 0.00 | 48 | 1011.5 |
| 20260508192204 | 20 | 203 | 22.5 | 32.2 | 0.00 | 0.00 | 0.00 | 51 | 1011.6 |
| 20260508191704 | 20 | 198 | 16.1 | 29.0 | 0.00 | 0.00 | 0.00 | 48 | 1011.7 |
| 20260508191205 | 20 | 199 | 22.5 | 35.4 | 0.00 | 0.00 | 0.00 | 43 | 1011.8 |
| 20260508185205 | 19 | 200 | 20.9 | 38.6 | 0.00 | 0.00 | 0.00 | 47 | 1012.1 |
| 20260508184704 | 19 | 206 | 20.9 | 33.8 | 0.00 | 0.00 | 0.00 | 47 | 1012.1 |
| 20260508184204 | 19 | 188 | 20.9 | 35.4 | 0.00 | 0.00 | 0.00 | 47 | 1012.1 |
| 20260508183704 | 19 | 203 | 20.9 | 32.2 | 0.00 | 0.00 | 0.00 | 46 | 1012.2 |
| 20260508183204 | 19 | 205 | 22.5 | 32.2 | 0.00 | 0.00 | 0.00 | 48 | 1012.2 |
| 20260508182204 | 19 | 198 | 22.5 | 32.2 | 0.00 | 0.00 | 0.00 | 47 | 1012.2 |
| 20260508181705 | 19 | 205 | 24.1 | 46.7 | 0.00 | 0.00 | 0.00 | 50 | 1012.3 |
| 20260508181204 | 19 | 198 | 24.1 | 35.4 | 0.00 | 0.00 | 0.00 | 46 | 1012.3 |
| 20260508180704 | 19 | 203 | 22.5 | 33.8 | 0.00 | 0.00 | 0.00 | 46 | 1012.4 |
| 20260508180204 | 19 | 202 | 25.7 | 37.0 | 0.00 | 0.00 | 0.00 | 46 | 1012.3 |
| 20260508174204 | 19 | 192 | 20.9 | 32.2 | 0.00 | 0.00 | 0.00 | 44 | 1012.4 |
| 20260508173704 | 19 | 208 | 20.9 | 29.0 | 0.00 | 0.00 | 0.00 | 46 | 1012.6 |
| 20260508173204 | 18 | 186 | 20.9 | 29.0 | 0.00 | 0.00 | 0.00 | 45 | 1012.6 |
| 20260508172704 | 18 | 185 | 19.3 | 29.0 | 0.00 | 0.00 | 0.00 | 42 | 1012.7 |
| 20260508171704 | 18 | 196 | 16.1 | 25.7 | 0.00 | 0.00 | 0.00 | 44 | 1012.9 |
| 20260508171205 | 18 | 192 | 20.9 | 32.2 | 0.00 | 0.00 | 0.00 | 44 | 1013.0 |
| 20260508170704 | 18 | 200 | 22.5 | 32.2 | 0.00 | 0.00 | 0.00 | 45 | 1013.0 |
| 20260508170204 | 18 | 200 | 12.9 | 22.5 | 0.00 | 0.00 | 0.00 | 42 | 1013.0 |
| 20260508165704 | 18 | 164 | 16.1 | 29.0 | 0.00 | 0.00 | 0.00 | 45 | 1013.1 |
| 20260508165204 | 18 | 209 | 17.7 | 29.0 | 0.00 | 0.00 | 0.00 | 41 | 1013.1 |
| 20260508164704 | 18 | 179 | 20.9 | 32.2 | 0.00 | 0.00 | 0.00 | 38 | 1013.2 |
| 20260508163704 | 18 | 193 | 12.9 | 20.9 | 0.00 | 0.00 | 0.00 | 43 | 1013.2 |
| 20260508163204 | 18 | 182 | 19.3 | 29.0 | 0.00 | 0.00 | 0.00 | 42 | 1013.3 |
| 20260508162704 | 18 | 198 | 12.9 | 25.7 | 0.00 | 0.00 | 0.00 | 43 | 1013.4 |
| 20260508161704 | 18 | 156 | 12.9 | 20.9 | 0.00 | 0.00 | 0.00 | 44 | 1013.5 |
| 20260508161204 | 18 | 189 | 14.5 | 22.5 | 0.00 | 0.00 | 0.00 | 44 | 1013.5 |
| 20260508160204 | 18 | 178 | 11.3 | 20.9 | 0.00 | 0.00 | 0.00 | 44 | 1013.7 |
| 20260508155705 | 18 | 180 | 16.1 | 27.4 | 0.00 | 0.00 | 0.00 | 42 | 1013.7 |
| 20260508155204 | 18 | 203 | 14.5 | 22.5 | 0.00 | 0.00 | 0.00 | 44 | 1013.7 |
| 20260508154704 | 18 | 197 | 17.7 | 22.5 | 0.00 | 0.00 | 0.00 | 44 | 1013.6 |
| 20260508154204 | 18 | 200 | 12.9 | 22.5 | 0.00 | 0.00 | 0.00 | 43 | 1013.7 |
| 20260508153204 | 18 | 212 | 14.5 | 20.9 | 0.00 | 0.00 | 0.00 | 43 | 1014.0 |
| 20260508152705 | 18 | 210 | 11.3 | 19.3 | 0.00 | 0.00 | 0.00 | 39 | 1014.0 |
| 20260508152204 | 18 | 227 | 9.7 | 16.1 | 0.00 | 0.00 | 0.00 | 39 | 1014.0 |